Ruidoso, NM

5:51 AM MDT on September 20, 2017 (GMT -0600)
Sierra Blanca Regional

Weather History for KSRR - February, 2013

Change the Weather History Date:

Tuesday, February 26, 2013

  Actual Average Record
Temperature  
Mean Temperature 35 °F -  
Max Temperature 46 °F 47 °F 66 °F (2007)
Min Temperature 24 °F 28 °F 8 °F (2002)
Degree Days  
Heating Degree Days 30    
Moisture  
Dew Point 3 °F    
Average Humidity 26    
Maximum Humidity 40    
Minimum Humidity 16    
Precipitation  
Precipitation 0.00 in - - ()
Sea Level Pressure  
Sea Level Pressure 29.89 in    
Wind  
Wind Speed 12 mph (WNW)    
Max Wind Speed 25 mph    
Max Gust Speed 43 mph    
Visibility 10 miles    
Events      
Averages and records for this station are not official NWS values.
T = Trace of Precipitation, MM = Missing Value Source: NWS Daily Summary

Daily Weather History Graph

Daily Weather History Graph

Search for Another Location

Airport or City:

Trip Planner

Search our weather history database for the weather conditions in past years. The results will help you decide how hot, cold, wet, or windy it might be!

Date:

Astronomy

Feb. 26, 2013 Rise Set
Actual Time 6:33 AM MST 5:56 PM MST
Civil Twilight 6:08 AM MST 6:21 PM MST
Nautical Twilight 5:39 AM MST 6:50 PM MST
Astronomical Twilight 5:11 AM MST 7:19 PM MST
Moon 7:09 PM MST (2/26) 6:42 AM MST (2/26)
Length of Visible Light 12h 13m
Length of Day
11h 23m
Full, 99% of the Moon is Illuminated
Feb 26
Full
Mar 4
Last Quarter
Mar 11
New
Mar 19
First Quarter
Mar 27
Full

Hourly Weather History & Observations

Time (MST) Temp. Windchill Dew Point Humidity Pressure Visibility Wind Dir Wind Speed Gust Speed Precip Events Conditions
12:15 AM 30.2 °F 24.3 °F 6.8 °F 37% 29.92 in 10.0 mi West 5.8 mph - N/A   Clear
12:35 AM 30.2 °F - 6.8 °F 37% 29.92 in 10.0 mi Calm Calm - N/A   Clear
12:55 AM 30.2 °F 24.3 °F 6.8 °F 37% 29.91 in 10.0 mi NW 5.8 mph - N/A   Clear
1:15 AM 28.4 °F 18.0 °F 6.8 °F 40% 29.91 in 10.0 mi WNW 12.7 mph - N/A   Clear
1:35 AM 30.2 °F 20.8 °F 6.8 °F 37% 29.91 in 10.0 mi WNW 11.5 mph - N/A   Clear
1:55 AM 30.2 °F 22.6 °F 6.8 °F 37% 29.91 in 10.0 mi WNW 8.1 mph - N/A   Clear
2:15 AM 28.4 °F 20.4 °F 6.8 °F 40% 29.90 in 10.0 mi WNW 8.1 mph - N/A   Clear
2:35 AM 28.4 °F 20.4 °F 6.8 °F 40% 29.90 in 10.0 mi NW 8.1 mph - N/A   Clear
2:55 AM 28.4 °F 21.2 °F 5.0 °F 37% 29.90 in 10.0 mi WNW 6.9 mph - N/A   Clear
3:15 AM 28.4 °F 22.2 °F 6.8 °F 40% 29.89 in 10.0 mi NNW 5.8 mph - N/A   Clear
3:35 AM 28.4 °F 22.2 °F 6.8 °F 40% 29.88 in 10.0 mi NW 5.8 mph - N/A   Clear
3:55 AM 28.4 °F 21.2 °F 5.0 °F 37% 29.88 in 10.0 mi NNW 6.9 mph - N/A   Clear
4:15 AM 28.4 °F 22.2 °F 5.0 °F 37% 29.88 in 10.0 mi NNW 5.8 mph - N/A   Clear
4:35 AM 28.4 °F 22.2 °F 5.0 °F 37% 29.88 in 10.0 mi North 5.8 mph - N/A   Clear
4:55 AM 30.2 °F - 3.2 °F 32% 29.87 in 10.0 mi Calm Calm - N/A   Clear
5:15 AM 28.4 °F 21.2 °F 5.0 °F 37% 29.88 in 10.0 mi NE 6.9 mph - N/A   Clear
5:35 AM 26.6 °F 21.2 °F 5.0 °F 40% 29.88 in 10.0 mi NNE 4.6 mph - N/A   Clear
5:55 AM 28.4 °F 23.3 °F 3.2 °F 34% 29.88 in 10.0 mi NE 4.6 mph - N/A   Clear
6:15 AM 30.2 °F 26.7 °F 1.4 °F 29% 29.88 in 10.0 mi ENE 3.5 mph - N/A   Clear
6:35 AM 32.0 °F 24.8 °F 1.4 °F 27% 29.88 in 10.0 mi North 8.1 mph 16.1 mph N/A   Clear
6:55 AM 33.8 °F 23.2 °F 1.4 °F 25% 29.88 in 10.0 mi WNW 17.3 mph 26.5 mph N/A   Clear
7:15 AM 35.6 °F 24.5 °F -0.4 °F 22% 29.87 in 10.0 mi WNW 20.7 mph 32.2 mph N/A   Clear
7:35 AM 37.4 °F 28.2 °F -0.4 °F 20% 29.88 in 10.0 mi WNW 16.1 mph 28.8 mph N/A   Clear
7:55 AM 37.4 °F 27.8 °F 1.4 °F 22% 29.88 in 10.0 mi WNW 17.3 mph 28.8 mph N/A   Clear
8:15 AM 37.4 °F 27.2 °F 1.4 °F 22% 29.89 in 10.0 mi WNW 19.6 mph 29.9 mph N/A   Clear
8:35 AM 39.2 °F 30.5 °F 1.4 °F 21% 29.89 in 10.0 mi West 16.1 mph 26.5 mph N/A   Clear
8:55 AM 39.2 °F 30.8 °F 1.4 °F 21% 29.89 in 10.0 mi West 15.0 mph 26.5 mph N/A   Clear
9:15 AM 39.2 °F 29.6 °F 1.4 °F 21% 29.88 in 10.0 mi West 19.6 mph 25.3 mph N/A   Clear
9:35 AM 41.0 °F 31.9 °F 1.4 °F 19% 29.88 in 10.0 mi West 19.6 mph 27.6 mph N/A   Clear
9:55 AM 41.0 °F 32.2 °F 1.4 °F 19% 29.88 in 10.0 mi West 18.4 mph 24.2 mph N/A   Clear
10:15 AM 41.0 °F 32.8 °F 3.2 °F 21% 29.88 in 10.0 mi West 16.1 mph 24.2 mph N/A   Clear
10:35 AM 41.0 °F 33.9 °F 1.4 °F 19% 29.87 in 10.0 mi West 12.7 mph 23.0 mph N/A   Clear
10:55 AM 44.6 °F 40.7 °F 5.0 °F 20% 29.87 in 10.0 mi WNW 6.9 mph - N/A   Clear
11:15 AM 44.6 °F 35.9 °F 1.4 °F 17% 29.85 in 10.0 mi West 23.0 mph 31.1 mph N/A   Clear
11:35 AM 44.6 °F 37.2 °F 1.4 °F 17% 29.85 in 10.0 mi WNW 17.3 mph 31.1 mph N/A   Clear
11:55 AM 44.6 °F 36.4 °F 1.4 °F 17% 29.85 in 10.0 mi West 20.7 mph 33.4 mph N/A   Clear
12:15 PM 46.4 °F 38.7 °F 1.4 °F 16% 29.84 in 10.0 mi West 20.7 mph 28.8 mph N/A   Clear
12:35 PM 46.4 °F 39.2 °F 3.2 °F 17% 29.84 in 10.0 mi West 18.4 mph 27.6 mph N/A   Clear
12:55 PM 46.4 °F 39.2 °F 3.2 °F 17% 29.83 in 10.0 mi West 18.4 mph 32.2 mph N/A   Clear
1:15 PM 46.4 °F 38.3 °F 1.4 °F 16% 29.82 in 10.0 mi West 23.0 mph 34.5 mph N/A   Clear
1:35 PM 46.4 °F 38.1 °F 3.2 °F 17% 29.82 in 10.0 mi West 24.2 mph 42.6 mph N/A   Clear
1:55 PM 46.4 °F 38.3 °F 5.0 °F 18% 29.81 in 10.0 mi WNW 23.0 mph 35.7 mph N/A   Clear
2:15 PM 46.4 °F 39.8 °F 6.8 °F 20% 29.81 in 10.0 mi West 16.1 mph 25.3 mph N/A   Clear
2:35 PM 46.4 °F 38.7 °F 6.8 °F 20% 29.81 in 10.0 mi West 20.7 mph 27.6 mph N/A   Clear
2:55 PM 46.4 °F 39.5 °F 8.6 °F 22% 29.81 in 10.0 mi West 17.3 mph 28.8 mph N/A   Clear
3:15 PM 46.4 °F 40.1 °F 6.8 °F 20% 29.81 in 10.0 mi West 15.0 mph 28.8 mph N/A   Clear
3:35 PM 46.4 °F 39.8 °F 6.8 °F 20% 29.81 in 10.0 mi WNW 16.1 mph 29.9 mph N/A   Clear
3:55 PM 46.4 °F 38.1 °F 6.8 °F 20% 29.81 in 10.0 mi West 24.2 mph 32.2 mph N/A   Clear
4:15 PM 46.4 °F 38.5 °F 5.0 °F 18% 29.82 in 10.0 mi West 21.9 mph 32.2 mph N/A   Clear
4:35 PM 44.6 °F 38.1 °F 5.0 °F 20% 29.82 in 10.0 mi West 13.8 mph 32.2 mph N/A   Clear
4:55 PM 44.6 °F 36.9 °F 6.8 °F 21% 29.82 in 10.0 mi NW 18.4 mph 34.5 mph N/A   Clear
5:15 PM 41.0 °F 31.1 °F 6.8 °F 24% 29.83 in 10.0 mi NW 23.0 mph 34.5 mph N/A   Clear
5:35 PM 39.2 °F 29.0 °F 6.8 °F 26% 29.85 in 10.0 mi NW 21.9 mph 31.1 mph N/A   Clear
5:55 PM 37.4 °F 28.2 °F 1.4 °F 22% 29.86 in 10.0 mi NW 16.1 mph 35.7 mph N/A   Clear
6:15 PM 35.6 °F 24.5 °F 1.4 °F 24% 29.87 in 10.0 mi NW 20.7 mph 35.7 mph N/A   Clear
6:35 PM 35.6 °F 24.5 °F 1.4 °F 24% 29.88 in 10.0 mi NW 20.7 mph 32.2 mph N/A   Clear
6:55 PM 33.8 °F 21.6 °F -0.4 °F 23% 29.89 in 10.0 mi NW 23.0 mph 32.2 mph N/A   Clear
7:15 PM 33.8 °F 21.3 °F -0.4 °F 23% 29.90 in 10.0 mi NW 24.2 mph 36.8 mph N/A   Clear
7:35 PM 32.0 °F 20.8 °F -0.4 °F 25% 29.92 in 10.0 mi NNW 17.3 mph 31.1 mph N/A   Clear
7:55 PM 32.0 °F 19.2 °F 1.4 °F 27% 29.93 in 10.0 mi NW 23.0 mph 35.7 mph N/A   Clear
8:15 PM 32.0 °F 20.1 °F 1.4 °F 27% 29.93 in 10.0 mi NW 19.6 mph 34.5 mph N/A   Clear
8:35 PM 30.2 °F 16.2 °F 1.4 °F 29% 29.95 in 10.0 mi NW 25.3 mph 33.4 mph N/A   Clear
8:55 PM 28.4 °F 14.7 °F -0.4 °F 29% 29.96 in 10.0 mi NW 21.9 mph 33.4 mph N/A   Clear
9:15 PM 28.4 °F 15.8 °F -2.2 °F 27% 29.98 in 10.0 mi NW 18.4 mph 34.5 mph N/A   Clear
9:35 PM 26.6 °F 13.4 °F -2.2 °F 29% 29.99 in 10.0 mi NW 18.4 mph 28.8 mph N/A   Clear
9:55 PM 26.6 °F 13.8 °F -4.0 °F 26% 29.99 in 10.0 mi NW 17.3 mph 26.5 mph N/A   Clear
10:15 PM 26.6 °F 15.7 °F -4.0 °F 26% 30.01 in 10.0 mi NW 12.7 mph 24.2 mph N/A   Clear
10:35 PM 26.6 °F 15.7 °F -2.2 °F 29% 30.02 in 10.0 mi NW 12.7 mph 19.6 mph N/A   Clear
10:55 PM 24.8 °F 13.4 °F -2.2 °F 31% 30.04 in 10.0 mi NW 12.7 mph 18.4 mph N/A   Clear
11:15 PM 24.8 °F 14.0 °F -2.2 °F 31% 30.05 in 10.0 mi NW 11.5 mph 18.4 mph N/A   Clear
11:35 PM 24.8 °F 14.0 °F -0.4 °F 34% 30.05 in 10.0 mi NW 11.5 mph 18.4 mph N/A   Clear
11:55 PM 24.8 °F 14.0 °F -0.4 °F 34% 30.06 in 10.0 mi NW 11.5 mph 20.7 mph N/A   Clear